Regional Weather Roundup
Issued by NWS Green Bay, WI

Home | Current Version | Previous Version | Text Only | Print | Product List | Glossary On
Versions: 1 2 3 4 5 6 7 8 9 10 11 12 13 14 15 16 17 18 19 20 21 22 23 24 25 26 27 28 29 30 31 32 33 34 35 36 37 38 39 40 41 42 43 44 45 46 47 48 49 50
000
ASUS43 KGRB 301011
RWRGRB

NORTH-CENTRAL AND NORTHEAST WISCONSIN REGIONAL WEATHER ROUNDUP
NATIONAL WEATHER SERVICE GREEN BAY WI
500 AM CDT SUN AUG 30 2015

WIZ005-009-010>012-018-019-301100-
NORTH CENTRAL WISCONSIN

CITY           SKY/WX    TMP DP  RH WIND       PRES   REMARKS
IRONWOOD       PTCLDY    63  61  94 S6        29.97S
MANITOWISH WTR CLOUDY    60  60 100 SW7       30.04S
ARBOR VITAE    FOG       59  58  96 CALM      30.05S VSB 1
EAGLE RIVER    FOG       59  59 100 SW6       30.05S VSB 3/4
LAND O LAKES   CLOUDY    61  60  99 SW5       30.05S FOG
RHINELANDER    CLOUDY    58  57  97 W6        30.07R FOG
PHILLIPS       PTCLDY    57  57 100 S3        30.04S
ANTIGO         FOG       52  52 100 CALM      30.07S VSB 1/4
TOMAHAWK       FOG       54  53  97 CALM      30.06S VSB 1/4
MERRILL        FOG       51  51 100 CALM      30.07R VSB<1/4
$$

WIZ013-073-301100-
NORTHEAST WISCONSIN

CITY           SKY/WX    TMP DP  RH WIND       PRES   REMARKS
IRON MOUNTAIN  CLOUDY    59  58  96 W3        30.03R FOG
MARINETTE        N/A     55  52  88 CALM      30.03S VSB 1/2
OCONTO         CLOUDY    52  52 100 CALM      30.04S VSB<1/4
$$

WIZ017-030-035>037-045-301100-
CENTRAL WISCONSIN

CITY           SKY/WX    TMP DP  RH WIND       PRES   REMARKS
MEDFORD        FOG       49  49 100 CALM      30.06R VSB<1/4
WAUSAU         FOG       52  51  97 CALM      30.04F VSB 1/2
MOSINEE        FOG       52  52 100 CALM      30.06S VSB 1/2
MARSHFIELD     FOG       55  52  89 CALM      30.05S VSB 3/4
WISC RAPIDS    PTCLDY    55  54  96 CALM      30.06S FOG
STEVENS POINT  MOCLDY    50  50  99 CALM      30.06S FOG
WAUPACA          N/A     54  52  95 CALM      30.06S FOG
SHAWANO        FOG       55  53  95 CALM      30.06S VSB 1/4
CLINTONVILLE   FOG       52  50  93 CALM      30.05S VSB 1/4
WAUTOMA        FOG       56  56 100 CALM      30.06S VSB<1/4
$$

WIZ038-039-048-051-301100-
FOX VALLEY

CITY           SKY/WX    TMP DP  RH WIND       PRES   REMARKS
NWS GREEN BAY  FOG       58  57  97 CALM      30.05S VSB 1/4
APPLETON       MOCLDY    57  57 100 NW5       30.04S FOG
OSHKOSH        FOG       57  56  96 CALM      30.05R VSB 1/4
FOND DU LAC    FOG       59  58  96 CALM      30.05S VSB 1/4
$$

WIZ022-050-052-301100-
EAST CENTRAL WISCONSIN

CITY           SKY/WX    TMP DP  RH WIND       PRES   REMARKS
EPHRAIM        FOG       58  58 100 CALM      30.03S VSB 1/2
STURGEON BAY   CLOUDY    55  52  88 CALM      30.07S VSB<1/4
MANITOWOC      FOG       53  52  96 MISG      30.05S VSB 1/2
SHEBOYGAN      FOG       54  53  97 CALM      30.05R VSB 1/4
$$

LMZ563-521-522-541>543-301100-
LAKESHORE

STATION/POSITION TIME  TEMP    WIND        PRES    VSBY  WAVE
                       AIR SEA DIR/SP/G                  HT/PER
                 (UTC) (F)     (DEG/KT/KT) (MB)    (MI)  (FT/S)
SHEBOYGAN LKSHOR 1000   54      10/  2/  2 1017.8R
ALGOMA MARINA    0914             CALM       N/A
NORTHPORT PIER   1003   60     250/  2/  6 1016.9S
N MID LAKE BUOY  0950   63 64  240/  6/  6 1017.0R         0
S GREEN BAY BUOY 1000   61 62  240/  6/  8 1018.7S
SISTER BAY LKSHO 0949   61        CALM       N/A
CHAMBERS ISLAND  0900   59     190/  2/  4 1017.3S
$$


USA.gov is the U.S. government's official web portal to all federal, state and local government web resources and services.